Tracking 29892 objects as of 21-Nov-2024
HD Live streaming from Space Station
objects crossing your sky now

ONEWEB-0281

Track ONEWEB-0281 now!
10-day predictions
ONEWEB-0281 is classified as:


NORAD ID: 48999
Int'l Code: 2021-061AJ
Perigee: 1,203.4 km
Apogee: 1,206.4 km
Inclination: 87.9 °
Period: 109.4 minutes
Semi major axis: 7575 km
RCS: Unknown
Launch date: July 1, 2021
Source: United Kingdom (UK)
Launch site: VOSTOCHNY COSMODROME (VOSTO)
Your satellite tracking list
Your tracking list is empty




NASA's NSSDC Master Catalog

Two Line Element Set (TLE):
1 48999U 21060AJ  24325.51728771  .00000063  00000-0  13006-3 0  9994
2 48999  87.9090 343.0608 0001981  93.4950 266.6408 13.16597032165457
Source of the keplerian elements: AFSPC